sat.trackr.live / text

‹ back to catalog

STARLINK-36406

NORAD 67923 · 2026-036V

PAYLOAD ACTIVE UNKNOWN

§ Identity

Operator
Country
US
Launch date
2026-02-22
Launch site
AFETR
Launch vehicle
Mass (kg)
RCS (m²)

Purposes: comms

External: N2YO · Heavens-Above · Gunter

§ Orbital elements

Epoch: 2026-05-25T02:02:27.113856Z

Period
94.27 min
Inclination
43.0012°
Eccentricity
0.0001623
Mean motion
15.27590172 rev/d
Perigee alt
481.9 km
Apogee alt
484.1 km
Semi-major
6,861.2 km
B*
5.5781e-4
RAAN
174.0238°
Arg perigee
272.8735°
Mean anomaly
87.1931°
Rev number
1,540

§ Raw data

STARLINK-364061 67923U 26036V   26145.08503604  .00015124  00000+0  55781-3 0  99992 67923  43.0012 174.0238 0001623 272.8735  87.1931 15.27590172 15408

JSON: /api/v1/satellites/67923 · /tle

For live sub-satellite position, see the globe view (requires WebGL).

§ Visibility from observer

Set your observer location to see the next 7 days of passes ≥ 10°. The values pass through the URL so the page stays shareable.

No JS? Fill the form by hand. The geolocation button needs JavaScript.